Flag for Kazakhstan Weather past 2 weeks in Almaty, Kazakhstan

Now
55 °F

Scattered clouds.


Feels Like: 55 °F
Forecast: 58 / 73 °F
Wind: 3 mph from South

Location: Almaty Airport

Current Time: May 25, 2015 at 6:29:37 AM

Latest Report: May 25, 2015 at 6:00 AM


Visibility: N/A

Pressure: 30.04 "Hg

Humidity: 59%

Dew point: 41 °F

Location of AlmatyLocation

Historic Weather in Almaty — Graph

°F

Almaty temperature yesterday

Maximum temperature yesterday: 73 °F (at 4:00 PM)
Minimum temperature yesterday: 52 °F (at 5:00 AM)
Average temperature yesterday: 63 °F

Past Weeks' High & Low Weather Summary

 TemperatureHumidityPressure
High86 °F (May 16, 2:00 PM)94% (May 10, 6:00 AM)30.21 "Hg (May 10, 6:00 AM)
Low50 °F (May 10, 5:00 AM)20% (May 14, 4:00 PM)29.65 "Hg (May 16, 1:30 PM)
Average65 °F58%29.98 "Hg
* Reported May 10 5:00 AM — May 25 5:30 AM, Almaty, Weather by CustomWeather, © 2015

Note: Actual official high and low records may vary slightly from our data, if they occured in-between our weather recording intervals... More about our weather records

Advertising

Almaty weather history for previous 24 hours

 ConditionsComfort  
Time TempWeatherWind HumidityBarometerVisibility
5:30 AM
Mon, May 25
55 °FScattered clouds.6 mph59%30.04 "HgN/A
5:00 AM55 °FPassing clouds.6 mph59%30.04 "HgN/A
4:30 AM54 °FPassing clouds.6 mph67%30.04 "HgN/A
4:00 AM55 °FPassing clouds.6 mph59%30.04 "HgN/A
3:30 AM57 °FPassing clouds.6 mph55%30.04 "HgN/A
3:00 AM57 °FPassing clouds.8 mph55%30.04 "HgN/A
2:30 AM57 °FPassing clouds.6 mph55%30.04 "HgN/A
2:00 AM57 °FPassing clouds.8 mph55%30.04 "HgN/A
1:30 AM55 °FPassing clouds.8 mph63%30.04 "HgN/A
1:00 AM55 °FPassing clouds.3 mph63%30.04 "HgN/A
12:30 AM55 °FPassing clouds.1 mph63%30.04 "HgN/A
12:00 AM55 °FPassing clouds.1 mph67%30.04 "HgN/A
11:30 PM
Sun, May 24
57 °FPassing clouds.3 mph63%30.04 "HgN/A
11:00 PM59 °FPassing clouds.1 mph55%30.04 "HgN/A
10:30 PM61 °FPassing clouds.3 mph48%30.04 "HgN/A
10:00 PM63 °FPassing clouds.6 mph45%30.04 "HgN/A
9:30 PM63 °FPassing clouds.8 mph45%30.01 "HgN/A
9:00 PM64 °FPartly cloudy.8 mph40%30.01 "HgN/A
8:30 PM64 °FPartly cloudy.15 mph40%30.01 "HgN/A
8:00 PM64 °FBroken clouds.13 mph43%30.01 "HgN/A
7:30 PM66 °FBroken clouds.17 mph40%30.01 "HgN/A
7:00 PM68 °FBroken clouds.10 mph40%30.01 "HgN/A
6:30 PM68 °FBroken clouds.3 mph38%29.98 "HgN/A
6:00 PM70 °FBroken clouds.6 mph31%29.98 "HgN/A
5:30 PM72 °FBroken clouds.6 mph33%29.98 "HgN/A
5:00 PM73 °FBroken clouds.8 mph29%29.98 "HgN/A
4:30 PM72 °FBroken clouds.3 mph29%29.98 "HgN/A
4:00 PM73 °FBroken clouds.3 mph27%29.98 "HgN/A
3:30 PM72 °FBroken clouds.3 mph25%29.98 "HgN/A
3:00 PM72 °FBroken clouds.3 mph27%29.98 "HgN/A
2:30 PM72 °FBroken clouds.6 mph33%29.98 "HgN/A
2:00 PM72 °FBroken clouds.6 mph38%29.98 "HgN/A
1:30 PM72 °FPartly sunny.6 mph31%29.98 "HgN/A
1:00 PM72 °FPartly sunny.3 mph31%29.98 "HgN/A
12:30 PM72 °FBroken clouds.6 mph36%29.98 "HgN/A
12:00 PM70 °FPartly sunny.6 mph33%29.98 "HgN/A
11:30 AM72 °FScattered clouds.6 mph31%30.01 "HgN/A
11:00 AM70 °FScattered clouds.6 mph38%29.98 "HgN/A
10:30 AM70 °FScattered clouds.3 mph33%29.98 "HgN/A
10:00 AM68 °FBroken clouds.6 mph40%29.98 "HgN/A
9:30 AM68 °FBroken clouds.6 mph40%29.98 "HgN/A
9:00 AM66 °FBroken clouds.3 mph40%29.98 "HgN/A
8:30 AM66 °FScattered clouds.3 mph43%29.98 "HgN/A
8:00 AM64 °FScattered clouds.1 mph43%29.98 "HgN/A
7:30 AM61 °FScattered clouds.1 mph59%29.98 "HgN/A
7:00 AM57 °FScattered clouds.3 mph67%29.98 "HgN/A
6:30 AM54 °FScattered clouds.3 mph72%29.98 "HgN/A
6:00 AM52 °FPartly sunny.1 mph72%29.98 "HgN/A
Weather by CustomWeather, © 2015

See weather overviewHow to use our weather pages